Weather in Shutovka

Russia / Smolensk Oblast     54°42′29″N   32°30′06″E
temp.,
°C
wind,
m/s
gust,
m/s
humid.,
%
clouds,
%
prec.,
mm/h
press.,
hPa
HPBL,
m
30 june, thu
thu3000:00+15e23890 0.0 102056
03:00+14ese128711 0.0 102012
06:00+15ene23850 0.0 101967
09:00+21ene12630 0.0 1019482
12:00+24nne34430 0.0 10191412
15:00+25ne3442100 0.0 10191883
18:00+25ne14513 0.0 10181848
21:00+18ese22730 0.0 101916
1 july, fri
fri100:00+15ssw00715 0.0 101911
03:00+14n11765 0.0 102011
06:00+15nne11785 0.0 102111
09:00+21ne22590 0.0 1021332
12:00+25n34459 0.0 10201583
15:00+26nne344269 0.0 10202317
18:00+25ene3456100 0.0 1020701
21:00+18ese3680100 0.0 1021105
2 july, sat
sat200:00+15se226961 0.0 102230
03:00+13s1173100 0.0 102311
06:00+15ssw1185100 0.0 102340
09:00+20ssw1167100 0.0 1023327
12:00+24wsw2157100 0.0 1022934
15:00+25w225890 0.0 10211262
18:00+25w236663 0.2 1020650
21:00+20w3583100 0.3 102087
3 july, sun
sun300:00+19wnw348898 0.0 102067
03:00+17wnw359064 0.0 101973
06:00+18nw248884 0.0 1019102
09:00+23nw236846 0.0 1019395
12:00+26wnw3356100 0.0 1018974
15:00+27w335238 0.0 10171334
18:00+26wnw34634 0.3 1016768
21:00+21w358064 0.4 101776
4 july, mon
mon400:00+18nne118911 0.0 101711
03:00+17wsw22905 0.0 101715
06:00+18wnw22886 0.0 101757
09:00+24nw11695 0.0 1017375
12:00+27w22565 0.0 10171158
15:00+28wsw33528 0.0 10161623
18:00+27sw23602 0.2 1016947
21:00+21w22850 0.5 101718